Location: Blackwall
(51.5097°N, 0.0016°W)
Time: 22:29:00
(UTC+00:00)

COSMOS 2406 - Pass Details

Date: 15 May 2026
Orbit: 846 x 858 km, 71.0° (Epoch: 11 June)

Event Time Altitude Azimuth Distance (km) Brightness Sun altitude
Rises 21:22:04 0° 214° (SW) 3,422 6.2 -11.8°
Reaches altitude 10° 21:24:32 10° 217° (SW) 2,489 5.5 -12.0°
Maximum altitude 21:30:15 74° 302° (WNW) 896 3.5 -12.6°
Drops below altitude 10° 21:36:01 10° 28° (NNE) 2,500 6.0 -13.1°
Sets 21:38:29 0° 30° (NNE) 3,439 6.7 -13.3°
